contact:dominique.lefevre@mio.osupytheas.fr, maurice.libes@osupytheas.fr, didier.mallarino@osupytheas.fr
Project:EMSO http://www.emso-fr.org/EMSO-France
Depth: 2436.0 m
Title:EMSO Ligure Ouest : Data MII capteur AQUADOPP
Date,Latitude,Longitude,X_East,Y_North,Z_Up,Amplitude_X,Amplitude_Y,Amplitude_Z,Batterie,SoundSpeed,Heading,Pitch,Roll,Pressure,TIS,Speed,Direction
, degrees North, degrees East, m.s-1, m.s-1,m.s-1, 1, 1, 1, Volt, m.s-1, degree, degree, degree, dbar, degree_C, m.s-1, degree
2020-04-07T00:04:03,42.805,6.029,0.027,0.012,-0.006,104.0,108.0,101.0,13.4,1505.3,325.2,-0.7,1.9,2470.275,13.33,0.029,66.0
2020-04-07T00:07:03,42.805,6.029,-0.035,0.019,-0.075,105.0,110.0,102.0,13.4,1505.4,323.7,-0.7,1.9,2470.176,13.34,0.039,298.5
2020-04-07T00:10:03,42.805,6.029,-0.014,0.011,-0.064,105.0,111.0,102.0,13.3,1505.4,323.0,-0.7,1.9,2470.231,13.34,0.017,308.2
2020-04-07T00:13:03,42.805,6.029,0.003,0.03,-0.049,106.0,109.0,103.0,13.4,1505.4,325.5,-0.7,1.8,2470.238,13.35,0.03,5.7
2020-04-07T00:16:03,42.805,6.029,-0.009,0.018,-0.074,103.0,111.0,101.0,13.3,1505.4,326.6,-0.7,1.8,2470.188,13.35,0.02,333.4
2020-04-07T00:19:03,42.805,6.029,-0.038,0.004,-0.079,104.0,109.0,101.0,13.4,1505.4,326.9,-0.7,1.8,2470.216,13.35,0.038,276.0
2020-04-07T00:22:03,42.805,6.029,-0.027,0.017,-0.071,108.0,110.0,101.0,13.3,1505.4,325.5,-0.7,1.9,2470.208,13.35,0.031,302.2
2020-04-07T00:25:03,42.805,6.029,0.0,0.016,-0.044,104.0,115.0,102.0,13.3,1505.4,326.6,-0.7,1.8,2470.197,13.35,0.016,0.0
2020-04-07T00:28:03,42.805,6.029,0.003,0.019,-0.05,103.0,111.0,101.0,13.4,1505.4,323.0,-0.7,1.9,2470.23,13.35,0.019,9.0
2020-04-07T00:31:03,42.805,6.029,-0.019,0.026,-0.08,105.0,112.0,100.0,13.3,1505.4,323.3,-0.7,1.8,2470.233,13.35,0.032,323.8
2020-04-07T00:34:03,42.805,6.029,0.006,0.021,-0.065,104.0,110.0,100.0,13.4,1505.4,326.9,-0.7,1.8,2470.212,13.35,0.021,15.9
2020-04-07T00:37:03,42.805,6.029,-0.011,0.016,-0.029,105.0,110.0,102.0,13.3,1505.4,325.6,-0.7,1.8,2470.189,13.35,0.019,325.5
2020-04-07T00:40:03,42.805,6.029,0.004,0.028,-0.016,105.0,110.0,102.0,13.3,1505.4,326.4,-0.7,1.8,2470.19,13.35,0.028,8.1
2020-04-07T00:43:03,42.805,6.029,-0.001,0.012,-0.053,104.0,110.0,102.0,13.3,1505.4,325.6,-0.7,1.8,2470.184,13.35,0.012,355.2
2020-04-07T00:46:03,42.805,6.029,0.024,0.005,0.005,103.0,109.0,101.0,13.4,1505.4,325.0,-0.7,1.8,2470.202,13.35,0.024,78.2
2020-04-07T00:49:03,42.805,6.029,-0.009,0.008,-0.059,105.0,111.0,100.0,13.4,1505.4,328.2,-0.7,1.8,2470.168,13.35,0.012,311.6
2020-04-07T00:52:03,42.805,6.029,0.002,0.021,-0.02,103.0,110.0,103.0,13.4,1505.4,325.0,-0.7,1.8,2470.177,13.35,0.021,5.4
2020-04-07T00:55:03,42.805,6.029,-0.02,0.008,-0.046,104.0,110.0,104.0,13.4,1505.4,323.1,-0.7,1.8,2470.163,13.35,0.021,291.8
2020-04-07T00:58:03,42.805,6.029,-0.015,0.013,-0.093,105.0,110.0,101.0,13.3,1505.4,324.7,-0.7,1.8,2470.17,13.35,0.019,310.9
2020-04-07T01:04:03,42.805,6.029,0.0,0.023,-0.012,106.0,112.0,103.0,13.4,1505.3,323.9,-0.7,1.8,2470.22,13.33,0.023,0.0
2020-04-07T01:07:03,42.805,6.029,-0.045,-0.006,-0.081,104.0,109.0,101.0,13.3,1505.3,325.7,-0.8,1.8,2470.197,13.33,0.045,262.4
2020-04-07T01:10:03,42.805,6.029,0.003,0.005,-0.056,103.0,109.0,102.0,13.3,1505.4,327.8,-0.7,1.9,2470.222,13.34,0.005,31.0
2020-04-07T01:13:03,42.805,6.029,0.016,0.009,-0.027,104.0,111.0,102.0,13.3,1505.4,326.0,-0.7,1.8,2470.247,13.34,0.018,60.6
2020-04-07T01:16:03,42.805,6.029,-0.022,0.005,-0.098,104.0,111.0,101.0,13.4,1505.4,328.4,-0.7,1.8,2470.213,13.34,0.022,282.8
2020-04-07T01:19:03,42.805,6.029,0.01,0.015,-0.009,104.0,110.0,101.0,13.3,1505.4,323.2,-0.7,1.8,2470.214,13.34,0.018,33.7
2020-04-07T01:22:03,42.805,6.029,-0.014,0.02,-0.068,106.0,109.0,103.0,13.4,1505.4,325.1,-0.7,1.8,2470.198,13.34,0.024,325.0
2020-04-07T01:25:03,42.805,6.029,0.008,0.005,-0.008,103.0,109.0,101.0,13.4,1505.4,324.9,-0.7,1.8,2470.198,13.34,0.009,58.0
2020-04-07T01:28:03,42.805,6.029,-0.003,0.002,-0.038,107.0,110.0,102.0,13.4,1505.4,325.6,-0.7,1.8,2470.219,13.34,0.003,303.7
2020-04-07T01:31:03,42.805,6.029,0.005,0.0,-0.004,105.0,110.0,104.0,13.4,1505.4,327.2,-0.7,1.8,2470.166,13.35,0.005,90.0
2020-04-07T01:34:03,42.805,6.029,0.007,0.017,-0.056,104.0,111.0,101.0,13.4,1505.4,326.4,-0.7,1.8,2470.221,13.35,0.018,22.4
2020-04-07T01:37:03,42.805,6.029,-0.001,-0.017,-0.038,105.0,109.0,101.0,13.4,1505.4,324.5,-0.7,1.8,2470.203,13.35,0.017,183.4
2020-04-07T01:40:03,42.805,6.029,-0.035,-0.004,-0.094,103.0,110.0,101.0,13.4,1505.4,326.1,-0.7,1.8,2470.214,13.34,0.035,263.5
2020-04-07T01:43:03,42.805,6.029,-0.027,0.006,-0.065,104.0,110.0,103.0,13.4,1505.4,324.3,-0.7,1.9,2470.219,13.34,0.027,282.5
2020-04-07T01:49:03,42.805,6.029,-0.059,-0.006,-0.07,103.0,108.0,102.0,13.4,1505.3,324.3,-0.7,1.8,2470.239,13.32,0.059,264.2
2020-04-07T01:52:03,42.805,6.029,-0.046,0.004,-0.078,104.0,112.0,102.0,13.3,1505.3,325.7,-0.7,1.9,2470.237,13.33,0.046,275.0
2020-04-07T01:55:03,42.805,6.029,-0.023,0.014,-0.045,104.0,110.0,102.0,13.3,1505.3,323.5,-0.7,1.8,2470.222,13.33,0.026,301.3
2020-04-07T01:58:03,42.805,6.029,-0.001,0.008,-0.041,105.0,111.0,102.0,13.3,1505.3,327.7,-0.7,1.9,2470.231,13.33,0.008,352.9
2020-04-07T02:04:03,42.805,6.029,0.008,-0.006,-0.018,106.0,109.0,103.0,13.4,1505.3,326.1,-0.8,1.8,2470.27,13.32,0.01,126.9
2020-04-07T02:07:03,42.805,6.029,0.012,0.034,-0.008,104.0,111.0,102.0,13.4,1505.3,324.4,-0.7,1.8,2470.254,13.32,0.036,19.4
2020-04-07T02:10:03,42.805,6.029,0.019,0.02,-0.022,105.0,111.0,103.0,13.3,1505.3,323.5,-0.7,1.8,2470.287,13.33,0.027,43.5
2020-04-07T02:13:03,42.805,6.029,-0.02,0.014,-0.03,104.0,111.0,102.0,13.4,1505.3,325.1,-0.7,1.9,2470.265,13.33,0.024,305.0
2020-04-07T02:16:03,42.805,6.029,-0.005,0.019,-0.016,105.0,108.0,103.0,13.3,1505.3,324.0,-0.7,1.9,2470.242,13.33,0.019,345.3
2020-04-07T02:19:03,42.805,6.029,-0.024,0.027,-0.057,106.0,109.0,102.0,13.4,1505.4,326.6,-0.7,1.8,2470.247,13.34,0.036,318.4
2020-04-07T02:22:03,42.805,6.029,0.017,0.016,0.005,105.0,109.0,103.0,13.4,1505.4,328.2,-0.7,1.8,2470.234,13.34,0.023,46.7
2020-04-07T02:25:03,42.805,6.029,-0.001,0.013,-0.019,104.0,109.0,102.0,13.3,1505.4,324.8,-0.7,1.8,2470.219,13.34,0.013,355.6
2020-04-07T02:28:03,42.805,6.029,-0.003,0.001,-0.038,106.0,110.0,101.0,13.4,1505.4,325.3,-0.7,1.8,2470.233,13.34,0.003,288.4
2020-04-07T02:31:03,42.805,6.029,-0.024,0.015,-0.049,104.0,110.0,101.0,13.4,1505.4,324.9,-0.7,1.8,2470.241,13.34,0.028,302.0
2020-04-07T02:34:03,42.805,6.029,-0.011,0.025,-0.013,102.0,111.0,102.0,13.3,1505.4,325.1,-0.7,1.8,2470.254,13.34,0.027,336.3
2020-04-07T02:37:03,42.805,6.029,0.002,0.019,-0.024,103.0,111.0,104.0,13.3,1505.4,324.6,-0.7,1.8,2470.267,13.34,0.019,6.0
2020-04-07T02:40:03,42.805,6.029,-0.005,0.028,-0.01,107.0,110.0,102.0,13.4,1505.4,327.7,-0.7,1.8,2470.228,13.34,0.028,349.9
2020-04-07T02:43:03,42.805,6.029,-0.032,0.021,-0.044,106.0,109.0,102.0,13.4,1505.4,328.2,-0.7,1.8,2470.247,13.35,0.038,303.3
2020-04-07T02:46:03,42.805,6.029,-0.018,0.02,-0.033,107.0,111.0,103.0,13.4,1505.4,327.7,-0.7,1.9,2470.247,13.35,0.026,318.0
2020-04-07T02:49:03,42.805,6.029,-0.021,0.013,-0.065,108.0,112.0,102.0,13.3,1505.4,327.4,-0.7,1.8,2470.248,13.35,0.024,301.8
2020-04-07T02:52:03,42.805,6.029,0.018,0.017,-0.02,105.0,112.0,100.0,13.4,1505.4,324.9,-0.7,1.9,2470.263,13.35,0.024,46.6
2020-04-07T02:55:03,42.805,6.029,-0.001,0.014,-0.076,104.0,113.0,101.0,13.4,1505.4,325.0,-0.7,1.8,2470.263,13.34,0.014,355.9
2020-04-07T02:58:03,42.805,6.029,0.025,0.024,-0.035,104.0,110.0,101.0,13.3,1505.4,324.4,-0.7,1.8,2470.246,13.34,0.034,46.2
2020-04-07T03:04:03,42.805,6.029,0.009,0.016,-0.017,105.0,110.0,102.0,13.3,1505.3,323.8,-0.8,1.8,2470.295,13.33,0.018,29.4
2020-04-07T03:07:03,42.805,6.029,-0.027,0.002,-0.073,105.0,111.0,100.0,13.4,1505.3,325.4,-0.7,1.8,2470.281,13.33,0.027,274.2
2020-04-07T03:10:03,42.805,6.029,-0.006,0.038,-0.05,103.0,111.0,102.0,13.4,1505.4,327.6,-0.7,1.9,2470.317,13.34,0.038,351.0
2020-04-07T03:13:03,42.805,6.029,-0.012,0.043,-0.035,103.0,112.0,100.0,13.4,1505.4,324.8,-0.7,1.8,2470.338,13.34,0.044,344.4
2020-04-07T03:16:03,42.805,6.029,-0.02,0.001,-0.038,105.0,112.0,100.0,13.4,1505.4,322.8,-0.7,1.8,2470.315,13.34,0.02,272.9
2020-04-07T03:19:03,42.805,6.029,-0.02,0.042,-0.042,104.0,112.0,102.0,13.4,1505.4,326.6,-0.7,1.8,2470.27,13.34,0.046,334.5
2020-04-07T03:22:03,42.805,6.029,-0.005,0.019,-0.058,103.0,111.0,102.0,13.4,1505.4,327.9,-0.7,1.9,2470.285,13.34,0.019,345.3
2020-04-07T03:25:03,42.805,6.029,-0.004,0.033,-0.032,101.0,110.0,101.0,13.4,1505.4,324.6,-0.7,1.8,2470.319,13.34,0.033,353.1
2020-04-07T03:28:03,42.805,6.029,-0.003,0.03,-0.031,104.0,109.0,103.0,13.3,1505.4,324.9,-0.7,1.8,2470.284,13.34,0.03,354.3
2020-04-07T03:31:03,42.805,6.029,-0.014,0.033,-0.043,104.0,111.0,102.0,13.4,1505.4,324.8,-0.7,1.8,2470.318,13.34,0.035,337.0
2020-04-07T03:34:03,42.805,6.029,-0.009,0.023,-0.069,104.0,110.0,101.0,13.4,1505.4,324.9,-0.7,1.8,2470.307,13.34,0.024,338.6
2020-04-07T03:37:03,42.805,6.029,-0.003,0.035,-0.031,105.0,110.0,102.0,13.4,1505.4,327.0,-0.7,1.9,2470.321,13.34,0.035,355.1
2020-04-07T03:40:03,42.805,6.029,0.002,0.034,-0.013,104.0,111.0,101.0,13.4,1505.4,328.3,-0.7,1.8,2470.333,13.34,0.034,3.4
2020-04-07T03:43:03,42.805,6.029,0.014,0.009,-0.037,104.0,110.0,102.0,13.4,1505.4,327.2,-0.7,1.8,2470.286,13.34,0.016,57.3
2020-04-07T03:46:03,42.805,6.029,-0.008,0.025,-0.037,104.0,109.0,101.0,13.4,1505.4,327.4,-0.7,1.8,2470.28,13.34,0.026,342.3
2020-04-07T03:49:03,42.805,6.029,-0.015,0.038,-0.036,103.0,110.0,101.0,13.4,1505.4,325.9,-0.7,1.8,2470.299,13.34,0.04,338.5
2020-04-07T03:52:03,42.805,6.029,0.008,0.035,-0.045,104.0,111.0,100.0,13.4,1505.4,325.9,-0.7,1.8,2470.338,13.34,0.035,12.9
2020-04-07T03:55:03,42.805,6.029,-0.02,0.015,-0.045,103.0,110.0,102.0,13.3,1505.4,324.8,-0.7,1.9,2470.341,13.34,0.025,306.9
2020-04-07T03:58:03,42.805,6.029,-0.004,0.045,-0.029,104.0,109.0,101.0,13.4,1505.4,324.5,-0.7,1.8,2470.322,13.34,0.045,354.9
2020-04-07T04:04:03,42.805,6.029,-0.016,0.044,-0.033,103.0,109.0,101.0,13.4,1505.3,324.9,-0.7,1.8,2470.412,13.32,0.046,340.0
2020-04-07T04:07:03,42.805,6.029,-0.03,0.025,-0.065,103.0,111.0,100.0,13.4,1505.3,326.8,-0.7,1.8,2470.403,13.33,0.039,309.8
2020-04-07T04:10:03,42.805,6.029,-0.004,0.027,-0.038,104.0,110.0,102.0,13.4,1505.3,327.9,-0.7,1.8,2470.397,13.33,0.027,351.6
2020-04-07T04:13:03,42.805,6.029,0.011,0.031,-0.044,103.0,111.0,101.0,13.4,1505.4,324.7,-0.7,1.8,2470.428,13.34,0.032,19.5
2020-04-07T04:16:03,42.805,6.029,-0.003,0.033,-0.03,103.0,109.0,101.0,13.3,1505.4,323.7,-0.7,1.8,2470.349,13.34,0.033,354.8
2020-04-07T04:19:03,42.805,6.029,0.0,0.028,-0.051,104.0,109.0,102.0,13.4,1505.4,323.4,-0.7,1.8,2470.351,13.34,0.028,0.0
2020-04-07T04:22:03,42.805,6.029,0.027,0.027,-0.039,103.0,109.0,102.0,13.3,1505.4,324.9,-0.7,1.8,2470.399,13.34,0.038,45.0
2020-04-07T04:25:03,42.805,6.029,-0.004,0.006,-0.029,104.0,111.0,102.0,13.4,1505.4,328.1,-0.7,1.9,2470.407,13.34,0.007,326.3
2020-04-07T04:28:03,42.805,6.029,-0.005,0.01,-0.054,104.0,110.0,101.0,13.4,1505.4,326.3,-0.7,1.8,2470.391,13.34,0.011,333.4
2020-04-07T04:31:03,42.805,6.029,0.0,0.015,-0.045,104.0,109.0,102.0,13.4,1505.4,324.3,-0.7,1.8,2470.361,13.34,0.015,0.0
2020-04-07T04:34:03,42.805,6.029,-0.007,0.034,-0.05,103.0,111.0,101.0,13.4,1505.4,323.2,-0.7,1.8,2470.46,13.34,0.034,348.4
2020-04-07T04:37:03,42.805,6.029,-0.002,0.024,-0.046,103.0,109.0,102.0,13.4,1505.4,323.3,-0.7,1.8,2470.39,13.34,0.024,355.2
2020-04-07T04:40:03,42.805,6.029,0.011,0.044,-0.019,103.0,111.0,101.0,13.4,1505.4,327.2,-0.7,1.8,2470.407,13.34,0.045,14.0
2020-04-07T04:43:03,42.805,6.029,-0.021,0.024,-0.053,103.0,110.0,101.0,13.3,1505.4,325.3,-0.7,1.8,2470.423,13.34,0.031,318.8
2020-04-07T04:46:03,42.805,6.029,-0.01,0.031,-0.06,104.0,109.0,102.0,13.4,1505.4,325.4,-0.7,1.8,2470.363,13.35,0.032,342.1
2020-04-07T04:49:03,42.805,6.029,0.0,0.017,-0.028,106.0,108.0,99.0,13.4,1505.4,324.0,-0.7,1.8,2470.406,13.35,0.017,0.0
2020-04-07T04:52:03,42.805,6.029,-0.014,0.029,-0.039,101.0,110.0,100.0,13.4,1505.4,324.4,-0.7,1.8,2470.385,13.35,0.032,334.2
2020-04-07T04:55:03,42.805,6.029,-0.013,0.036,-0.028,103.0,110.0,101.0,13.4,1505.4,323.1,-0.7,1.8,2470.44,13.35,0.038,340.1
2020-04-07T04:58:03,42.805,6.029,0.011,0.017,-0.032,104.0,109.0,100.0,13.3,1505.4,324.3,-0.7,1.8,2470.428,13.35,0.02,32.9
2020-04-07T05:04:03,42.805,6.029,-0.008,0.028,-0.006,103.0,110.0,101.0,13.3,1505.3,323.9,-0.7,1.8,2470.443,13.33,0.029,344.1
2020-04-07T05:07:03,42.805,6.029,-0.008,0.009,-0.045,104.0,110.0,102.0,13.4,1505.3,324.0,-0.7,1.8,2470.424,13.33,0.012,318.4
2020-04-07T05:10:03,42.805,6.029,-0.01,0.021,-0.053,102.0,111.0,101.0,13.4,1505.4,327.8,-0.7,1.8,2470.445,13.34,0.023,334.5
2020-04-07T05:13:03,42.805,6.029,-0.012,0.023,-0.066,104.0,110.0,101.0,13.3,1505.4,325.6,-0.7,1.8,2470.425,13.34,0.025,332.4
2020-04-07T05:16:03,42.805,6.029,0.021,0.024,-0.017,104.0,109.0,102.0,13.4,1505.4,328.5,-0.7,1.8,2470.408,13.34,0.031,41.2
2020-04-07T05:19:03,42.805,6.029,-0.011,0.011,-0.047,103.0,111.0,101.0,13.4,1505.4,324.8,-0.8,1.8,2470.484,13.34,0.015,315.0
2020-04-07T05:22:03,42.805,6.029,-0.022,0.017,-0.057,103.0,111.0,101.0,13.4,1505.4,326.4,-0.7,1.8,2470.458,13.35,0.027,307.7
2020-04-07T05:25:03,42.805,6.029,-0.038,0.024,-0.081,104.0,113.0,100.0,13.3,1505.4,323.1,-0.7,1.8,2470.49,13.35,0.044,302.3
2020-04-07T05:28:03,42.805,6.029,-0.011,0.025,-0.001,105.0,110.0,101.0,13.4,1505.4,326.6,-0.7,1.8,2470.46,13.35,0.027,336.3
2020-04-07T05:31:03,42.805,6.029,-0.005,0.003,-0.064,103.0,112.0,102.0,13.4,1505.4,326.6,-0.7,1.8,2470.482,13.35,0.005,301.0
2020-04-07T05:34:03,42.805,6.029,-0.004,0.021,-0.022,104.0,111.0,102.0,13.4,1505.4,328.0,-0.7,1.8,2470.403,13.35,0.021,349.2
2020-04-07T05:37:03,42.805,6.029,-0.027,0.024,-0.046,103.0,112.0,103.0,13.4,1505.4,326.2,-0.7,1.9,2470.512,13.35,0.036,311.6
2020-04-07T05:40:03,42.805,6.029,0.0,0.025,-0.01,104.0,111.0,102.0,13.4,1505.4,324.6,-0.7,1.9,2470.441,13.35,0.025,0.0
2020-04-07T05:43:03,42.805,6.029,-0.009,0.029,-0.036,104.0,111.0,101.0,13.3,1505.4,326.1,-0.7,1.9,2470.464,13.34,0.03,342.8
2020-04-07T05:46:03,42.805,6.029,0.004,0.035,-0.025,105.0,110.0,101.0,13.4,1505.4,326.5,-0.7,1.8,2470.445,13.34,0.035,6.5
2020-04-07T05:49:03,42.805,6.029,0.004,0.025,-0.044,104.0,109.0,100.0,13.4,1505.4,326.9,-0.7,1.8,2470.476,13.34,0.025,9.1
2020-04-07T05:52:03,42.805,6.029,0.002,0.03,-0.012,103.0,111.0,100.0,13.4,1505.4,327.0,-0.7,1.8,2470.462,13.34,0.03,3.8
2020-04-07T05:55:03,42.805,6.029,-0.028,0.022,-0.088,105.0,109.0,101.0,13.4,1505.4,327.0,-0.7,1.8,2470.47,13.34,0.035,308.2
2020-04-07T06:04:03,42.805,6.029,0.002,0.016,-0.039,107.0,108.0,102.0,13.3,1505.3,326.2,-0.7,1.8,2470.52,13.31,0.016,7.1
2020-04-07T06:07:03,42.805,6.029,0.01,0.033,-0.012,104.0,109.0,102.0,13.4,1505.3,324.8,-0.7,1.8,2470.51,13.32,0.034,16.9
2020-04-07T06:10:03,42.805,6.029,-0.001,0.014,-0.021,104.0,109.0,102.0,13.4,1505.3,327.2,-0.7,1.8,2470.52,13.32,0.014,355.9
2020-04-07T06:13:03,42.805,6.029,-0.02,0.034,-0.065,101.0,109.0,101.0,13.4,1505.3,327.3,-0.7,1.8,2470.535,13.33,0.039,329.5
2020-04-07T06:16:03,42.805,6.029,-0.001,0.031,-0.036,105.0,109.0,102.0,13.4,1505.3,328.4,-0.7,1.9,2470.512,13.33,0.031,358.2
2020-04-07T06:19:03,42.805,6.029,0.0,0.024,-0.002,103.0,110.0,102.0,13.3,1505.3,323.2,-0.7,1.8,2470.504,13.33,0.024,0.0
2020-04-07T06:22:03,42.805,6.029,0.029,0.021,-0.023,103.0,110.0,101.0,13.4,1505.3,325.9,-0.7,1.8,2470.487,13.33,0.035,54.1
2020-04-07T06:25:03,42.805,6.029,-0.01,0.028,-0.055,104.0,109.0,101.0,13.4,1505.3,328.0,-0.7,1.8,2470.515,13.33,0.029,340.4
2020-04-07T06:28:03,42.805,6.029,-0.04,0.005,-0.053,104.0,109.0,100.0,13.4,1505.4,323.3,-0.7,1.8,2470.477,13.34,0.04,277.1
2020-04-07T06:31:03,42.805,6.029,0.0,0.043,-0.044,104.0,107.0,100.0,13.4,1505.4,326.9,-0.7,1.9,2470.484,13.34,0.043,0.0
2020-04-07T06:34:03,42.805,6.029,-0.026,0.021,-0.027,103.0,109.0,100.0,13.4,1505.4,324.0,-0.7,1.8,2470.495,13.34,0.033,308.9
2020-04-07T06:37:03,42.805,6.029,-0.012,0.028,-0.038,103.0,108.0,100.0,13.4,1505.4,326.5,-0.7,1.9,2470.471,13.34,0.03,336.8
2020-04-07T06:40:03,42.805,6.029,-0.014,0.033,-0.02,103.0,108.0,101.0,13.3,1505.4,325.2,-0.7,1.8,2470.488,13.34,0.035,337.0
2020-04-07T06:43:03,42.805,6.029,0.003,0.023,-0.03,104.0,108.0,101.0,13.4,1505.4,326.0,-0.7,1.9,2470.465,13.34,0.023,7.4
2020-04-07T06:46:03,42.805,6.029,-0.03,0.021,-0.044,105.0,108.0,102.0,13.4,1505.4,325.6,-0.7,1.8,2470.463,13.34,0.036,305.0
2020-04-07T06:49:03,42.805,6.029,-0.021,0.028,-0.047,104.0,107.0,102.0,13.4,1505.4,325.3,-0.7,1.8,2470.425,13.34,0.035,323.1
2020-04-07T06:52:03,42.805,6.029,-0.013,0.022,-0.037,104.0,108.0,100.0,13.4,1505.3,323.5,-0.7,1.8,2470.471,13.33,0.025,329.4
2020-04-07T06:55:03,42.805,6.029,-0.021,0.016,-0.064,105.0,110.0,101.0,13.4,1505.4,327.5,-0.7,1.8,2470.441,13.34,0.026,307.3
2020-04-07T06:58:03,42.805,6.029,-0.001,0.01,-0.027,104.0,107.0,102.0,13.4,1505.4,325.0,-0.7,1.8,2470.458,13.34,0.01,354.3
2020-04-07T07:04:03,42.805,6.029,-0.036,0.015,-0.075,104.0,109.0,101.0,13.4,1505.3,327.8,-0.7,1.8,2470.515,13.31,0.039,292.6
2020-04-07T07:07:03,42.805,6.029,-0.008,0.02,-0.026,104.0,107.0,102.0,13.4,1505.3,326.3,-0.7,1.8,2470.472,13.32,0.021,338.2
2020-04-07T07:10:03,42.805,6.029,0.009,0.034,-0.012,103.0,106.0,101.0,13.4,1505.3,328.1,-0.7,1.8,2470.507,13.32,0.035,14.8
2020-04-07T07:13:03,42.805,6.029,0.0,0.041,-0.044,102.0,108.0,100.0,13.4,1505.3,326.6,-0.7,1.9,2470.487,13.33,0.041,0.0
2020-04-07T07:16:03,42.805,6.029,-0.015,0.02,-0.045,103.0,106.0,101.0,13.3,1505.3,325.8,-0.7,1.8,2470.464,13.33,0.025,323.1
2020-04-07T07:19:03,42.805,6.029,-0.001,0.026,-0.009,103.0,107.0,102.0,13.3,1505.3,326.1,-0.7,1.8,2470.446,13.33,0.026,357.8
2020-04-07T07:22:03,42.805,6.029,0.003,0.041,-0.009,106.0,110.0,101.0,13.3,1505.3,327.6,-0.8,1.8,2470.453,13.33,0.041,4.2
2020-04-07T07:25:03,42.805,6.029,-0.007,0.019,-0.02,103.0,108.0,101.0,13.3,1505.3,326.8,-0.7,1.9,2470.502,13.33,0.02,339.8
2020-04-07T07:28:03,42.805,6.029,-0.044,0.015,-0.053,104.0,109.0,101.0,13.4,1505.3,327.6,-0.7,1.8,2470.479,13.33,0.046,288.8
2020-04-07T07:31:03,42.805,6.029,-0.031,0.025,-0.066,105.0,110.0,100.0,13.3,1505.3,326.7,-0.7,1.8,2470.477,13.33,0.039,308.9
2020-04-07T07:34:03,42.805,6.029,-0.027,0.025,-0.09,104.0,110.0,102.0,13.3,1505.3,327.5,-0.7,1.8,2470.439,13.33,0.036,312.8
2020-04-07T07:37:03,42.805,6.029,-0.017,0.045,-0.028,105.0,110.0,101.0,13.3,1505.3,323.6,-0.7,1.8,2470.429,13.33,0.048,339.3
2020-04-07T07:40:03,42.805,6.029,-0.025,0.03,-0.05,103.0,110.0,101.0,13.4,1505.3,325.4,-0.7,1.9,2470.469,13.33,0.039,320.2
2020-04-07T07:43:03,42.805,6.029,-0.029,0.024,-0.043,105.0,109.0,102.0,13.3,1505.3,327.2,-0.7,1.9,2470.456,13.33,0.037,309.6
2020-04-07T07:46:03,42.805,6.029,-0.018,0.043,-0.055,104.0,109.0,101.0,13.3,1505.3,323.9,-0.7,1.9,2470.431,13.33,0.046,337.3
2020-04-07T07:49:03,42.805,6.029,-0.057,0.047,-0.056,102.0,109.0,101.0,13.4,1505.3,324.0,-0.7,1.8,2470.492,13.33,0.073,309.5
2020-04-07T07:55:03,42.805,6.029,-0.023,0.046,-0.049,104.0,109.0,101.0,13.4,1505.3,326.8,-0.8,1.8,2470.499,13.31,0.051,333.4
2020-04-07T07:58:03,42.805,6.029,-0.03,0.023,-0.047,103.0,109.0,100.0,13.4,1505.3,325.9,-0.7,1.8,2470.463,13.32,0.037,307.5
2020-04-07T08:04:03,42.805,6.029,0.025,0.028,-0.033,105.0,109.0,100.0,13.4,1505.3,326.5,-0.7,1.8,2470.504,13.31,0.037,41.8
2020-04-07T08:07:03,42.805,6.029,0.026,0.019,0.005,103.0,109.0,101.0,13.4,1505.3,326.6,-0.8,1.9,2470.482,13.31,0.032,53.8
2020-04-07T08:10:03,42.805,6.029,0.003,0.036,-0.021,103.0,108.0,101.0,13.3,1505.3,326.3,-0.7,1.9,2470.458,13.32,0.036,4.8
2020-04-07T08:13:03,42.805,6.029,-0.013,0.052,-0.066,103.0,107.0,101.0,13.4,1505.3,324.9,-0.7,1.8,2470.455,13.33,0.053,346.0
2020-04-07T08:16:03,42.805,6.029,-0.024,0.009,-0.058,103.0,109.0,101.0,13.3,1505.3,325.2,-0.7,1.8,2470.456,13.33,0.025,290.6
2020-04-07T08:19:03,42.805,6.029,-0.045,0.011,-0.067,102.0,108.0,100.0,13.4,1505.3,323.8,-0.7,1.8,2470.45,13.33,0.046,283.7
2020-04-07T08:22:03,42.805,6.029,-0.03,0.028,-0.065,102.0,108.0,101.0,13.4,1505.3,324.3,-0.7,1.8,2470.464,13.33,0.041,313.0
2020-04-07T08:25:03,42.805,6.029,-0.017,0.037,-0.069,103.0,109.0,100.0,13.4,1505.3,326.3,-0.7,1.8,2470.411,13.33,0.04,335.3
2020-04-07T08:28:03,42.805,6.029,-0.039,0.018,-0.061,103.0,109.0,101.0,13.4,1505.3,325.7,-0.7,1.8,2470.419,13.33,0.042,294.8
2020-04-07T08:31:03,42.805,6.029,-0.028,0.006,-0.065,105.0,109.0,101.0,13.4,1505.3,328.1,-0.7,1.8,2470.411,13.33,0.028,282.1
2020-04-07T08:34:03,42.805,6.029,-0.003,0.03,-0.021,104.0,108.0,101.0,13.4,1505.3,323.1,-0.7,1.8,2470.464,13.33,0.03,354.3
2020-04-07T08:37:03,42.805,6.029,-0.002,0.021,0.0,103.0,110.0,101.0,13.4,1505.3,325.0,-0.7,1.8,2470.409,13.33,0.021,354.6
2020-04-07T08:40:03,42.805,6.029,0.011,0.035,0.006,103.0,109.0,100.0,13.4,1505.3,323.7,-0.7,1.8,2470.413,13.33,0.036,17.4
2020-04-07T08:43:03,42.805,6.029,0.001,0.032,-0.038,103.0,110.0,101.0,13.4,1505.3,326.4,-0.7,1.8,2470.439,13.33,0.032,1.8
2020-04-07T08:46:03,42.805,6.029,0.007,0.031,-0.016,103.0,109.0,102.0,13.3,1505.3,326.3,-0.7,1.8,2470.409,13.33,0.031,12.7
2020-04-07T08:49:03,42.805,6.029,-0.033,0.014,-0.003,103.0,109.0,101.0,13.3,1505.3,325.9,-0.7,1.8,2470.405,13.33,0.035,293.0
2020-04-07T08:52:03,42.805,6.029,-0.024,0.018,-0.056,104.0,109.0,101.0,13.3,1505.3,326.7,-0.7,1.8,2470.399,13.33,0.03,306.9
2020-04-07T08:55:03,42.805,6.029,-0.005,0.017,-0.019,103.0,109.0,100.0,13.3,1505.3,325.1,-0.7,1.8,2470.389,13.33,0.017,343.6
2020-04-07T08:58:03,42.805,6.029,0.0,0.02,-0.018,105.0,109.0,100.0,13.4,1505.3,323.8,-0.7,1.8,2470.376,13.33,0.02,0.0
2020-04-07T09:04:03,42.805,6.029,-0.037,0.013,-0.048,104.0,107.0,101.0,13.3,1505.3,324.8,-0.8,1.8,2470.401,13.31,0.039,289.4
2020-04-07T09:07:03,42.805,6.029,-0.052,0.021,-0.05,104.0,108.0,101.0,13.4,1505.3,322.7,-0.7,1.9,2470.408,13.32,0.056,292.0
2020-04-07T09:10:03,42.805,6.029,-0.029,0.017,-0.02,104.0,108.0,104.0,13.3,1505.3,326.7,-0.7,1.9,2470.392,13.32,0.033,300.4
2020-04-07T09:13:03,42.805,6.029,-0.005,0.038,-0.061,107.0,110.0,102.0,13.3,1505.3,326.3,-0.7,1.8,2470.386,13.33,0.038,352.5
2020-04-07T09:16:03,42.805,6.029,-0.04,0.035,-0.039,104.0,110.0,101.0,13.3,1505.3,327.8,-0.7,1.8,2470.416,13.33,0.053,311.2
2020-04-07T09:19:03,42.805,6.029,-0.024,0.02,-0.04,102.0,112.0,103.0,13.4,1505.3,325.2,-0.7,1.8,2470.43,13.33,0.031,309.8
2020-04-07T09:22:03,42.805,6.029,-0.018,0.038,-0.041,103.0,108.0,104.0,13.4,1505.3,327.8,-0.7,1.8,2470.396,13.33,0.042,334.7
2020-04-07T09:25:03,42.805,6.029,0.005,0.034,-0.007,105.0,110.0,101.0,13.4,1505.3,326.5,-0.7,1.8,2470.42,13.33,0.034,8.4
2020-04-07T09:31:03,42.805,6.029,0.004,0.003,-0.036,102.0,110.0,101.0,13.4,1505.3,326.8,-0.8,1.8,2470.413,13.31,0.005,53.1
2020-04-07T09:34:03,42.805,6.029,-0.007,0.037,-0.025,104.0,110.0,101.0,13.3,1505.3,327.9,-0.7,1.8,2470.411,13.32,0.037,349.3
2020-04-07T09:37:03,42.805,6.029,0.006,0.024,-0.017,103.0,111.0,100.0,13.4,1505.3,324.0,-0.7,1.9,2470.407,13.32,0.024,14.0
2020-04-07T09:40:03,42.805,6.029,-0.002,0.035,-0.031,104.0,111.0,101.0,13.4,1505.3,324.5,-0.7,1.8,2470.404,13.32,0.035,356.7
2020-04-07T09:43:03,42.805,6.029,-0.016,0.036,-0.052,104.0,111.0,101.0,13.4,1505.3,323.8,-0.7,1.8,2470.388,13.33,0.039,336.0
2020-04-07T09:46:03,42.805,6.029,-0.013,0.031,-0.056,103.0,109.0,101.0,13.3,1505.3,324.5,-0.7,1.8,2470.364,13.33,0.033,337.3
2020-04-07T09:49:03,42.805,6.029,-0.027,0.031,-0.015,103.0,110.0,100.0,13.4,1505.3,326.2,-0.7,1.8,2470.374,13.33,0.041,318.9
2020-04-07T09:52:03,42.805,6.029,-0.008,0.026,-0.025,104.0,110.0,102.0,13.4,1505.3,324.9,-0.7,1.8,2470.383,13.33,0.027,342.9
2020-04-07T09:55:03,42.805,6.029,-0.027,0.022,-0.037,101.0,111.0,102.0,13.4,1505.3,326.6,-0.7,1.8,2470.388,13.33,0.034,309.2
2020-04-07T09:58:03,42.805,6.029,-0.028,0.05,-0.032,103.0,110.0,101.0,13.3,1505.3,327.8,-0.7,1.8,2470.314,13.33,0.057,330.7
2020-04-07T10:04:03,42.805,6.029,-0.008,0.03,-0.02,103.0,111.0,101.0,13.4,1505.3,326.3,-0.7,1.8,2470.387,13.31,0.031,345.1
2020-04-07T10:07:03,42.805,6.029,-0.008,0.02,-0.022,103.0,111.0,101.0,13.4,1505.3,323.5,-0.7,1.9,2470.405,13.32,0.021,338.2
2020-04-07T10:10:03,42.805,6.029,-0.01,0.024,-0.035,102.0,111.0,102.0,13.3,1505.3,326.7,-0.7,1.8,2470.344,13.32,0.026,337.4
2020-04-07T10:13:03,42.805,6.029,-0.01,0.025,0.001,103.0,110.0,101.0,13.4,1505.3,326.1,-0.7,1.8,2470.343,13.33,0.026,338.2